CZ-6A DEB, 54571

Orbit data source: Space-Track

CZ-6A DEB, 54571 is space debris in SSO originally from a launch on Fri, 11 Nov 2022 UTC launched from the Taiyaun Space Center, China (TSC). Debris objects in space refer to the collection of defunct objects orbiting the Earth. Examples of debris include non-operational satellites, rocket bodies, and fragments generated from explosions, collisions, or faulty payload assembly.

Loading next visibility...
Identifier
54571, 2022-151LX
Orbit
SSO
Country
Flag of CNCN / PRC
Related business
Manufacturer
SAST
Mission
Spacecraft
Bus & Motor
Unknown
Mass
Unknown
Launch date (UTC)
2022-11-11 (3 years ago)
Launch vehicle
Unknown
Launch site
Taiyaun Space Center, China (TSC)
Object type
Payload
Rocket body
Debris
Shape & HBR
Unknown shape, 0.1 m
Radar Cross Section
Small (<0.1 m²)

Expand to show TLE details & history
Last TLE update: 7 hours ago

TLE from 7 hours ago
0 CZ-6A DEB
1 54571U 22151LX  25352.96051301  .00000594  00000-0  35343-3 0  9994
2 54571  98.7800 339.6396 0059442 145.2631 215.2444 14.10230147159269
Epoch: 2025-12-18T23:03Z
TLE epoch observation values (Epoch: 2025-12-18T23:03:08.324Z)
Latitude
0.00005°
Longitude
-93.95361°
Altitude
896.706 km
Speed
7.386 km/s
True Right ascension
22h 38m 33s
True Declination
0° 00' 00"
Sunlit
Object was in daylight at epoch
Visualization orbit readout
Latitude
Unknown
Longitude
Unknown
Altitude
Unknown
Speed
Unknown
Apparent Right ascension
Unknown
Apparent Declination
Unknown
Sunlit
N/A
Visualization observer readout
Local Sidereal Time
04:29:37
Azimuth
Unknown
Elevation
Unknown
Doppler factor
Unknown
Orbital elements
Apogee altitude
898.759 km
Perigee altitude
812.759 km
Semi-major axis
7,233.896 km
Eccentricity
0.00594
Inclination
98.78°
RAAN
339.6396°
Arg. of periapsis
145.2631°
True anomaly
214.8537°
Mean anomaly
215.2444°
Eccentric anomaly
215.04882°
Mean motion
3.52764 °/min
Orbital period
102.05 mins
BSTAR
0.00035343
Loading maneuver chart data...
Computing Atmospheric mass density...
Loading historical data...
Loading historical data...
Loading historical data...
Loading historical data...
Loading historical data...
Loading historical data...
Loading historical data...

Documentation

Showing up to 5 results
|